EHI
4 10 20 23 17 9 6 6 5 4 3 2 2 1 0 0 0 0 0 0 0 0 0 0 0 1 2 1 0 0 0 1 0 0 0 0 1 2 1 0 0 0 0
10 13 22 26 20 12 8 7 4 3 2 1 1 0 0 0 0 0 0 0 0 0 0 0 0 1 2 2 0 0 0 1 0 0 0 0 1 1 1 0 0 0 0
22 20 24 29 25 15 10 6 3 2 1 0 0 0 0 0 0 0 0 0 0 0 0 0 1 2 2 1 0 0 0 0 0 0 0 0 0 0 0 0 0 0 0
30 25 26 31 27 18 11 7 4 2 0 0 0 0 0 0 0 0 0 0 0 0 0 1 1 2 2 1 0 0 0 0 0 0 0 0 0 0 0 0 0 0 0
30 28 31 35 30 20 14 9 5 2 1 0 0 0 0 0 0 0 0 0 0 0 0 1 2 2 1 0 0 0 0 0 0 0 0 0 0 0 0 0 0 0 0
29 28 34 38 32 22 17 12 6 2 1 0 0 0 0 0 0 0 0 0 0 0 0 1 1 1 0 0 0 0 0 0 0 0 0 0 0 0 0 0 0 0 0
31 30 33 37 32 24 18 13 7 3 0 0 0 0 0 0 0 0 0 0 0 0 0 0 0 0 0 0 0 0 0 0 0 0 0 0 0 0 0 0 0 0 0
38 34 30 29 27 23 19 15 10 5 1 0 0 0 0 0 0 0 0 0 0 0 0 0 0 0 0 0 0 0 0 1 0 0 0 0 0 0 0 0 0 0 0
42 37 26 19 18 18 16 13 10 6 2 0 0 0 0 0 0 0 0 0 0 0 0 0 0 0 0 0 1 1 1 2 1 0 0 0 0 0 0 0 0 0 0
38 32 23 15 12 11 9 8 7 5 2 0 0 0 0 0 0 0 0 0 0 0 0 0 0 0 0 1 2 3 1 1 0 0 0 0 1 1 0 0 0 0 0
32 27 21 17 11 6 4 4 4 3 1 0 0 0 0 0 0 0 0 0 0 0 0 0 1 1 1 1 2 2 1 0 0 0 0 0 1 2 1 0 0 0 0
28 24 19 15 10 5 3 2 2 1 1 0 0 0 0 0 0 0 0 0 0 0 0 0 1 2 1 1 1 1 0 0 0 0 0 1 1 2 1 0 0 0 0
25 21 16 11 7 3 2 1 1 0 0 0 0 0 0 0 0 0 0 0 0 0 0 0 1 1 1 0 0 0 0 0 0 0 0 1 1 1 1 0 0 0 0
26 20 14 10 6 3 1 0 0 0 0 0 0 0 0 0 0 0 0 0 0 0 0 0 0 0 0 0 0 0 0 0 0 0 0 0 1 1 0 0 0 0 0
27 22 16 11 7 3 1 0 0 0 0 0 0 0 0 0 0 0 0 0 0 0 0 0 0 0 0 0 0 0 0 0 0 0 0 0 0 1 0 0 0 0 0
29 26 21 15 8 3 1 0 0 1 0 0 0 0 0 0 0 0 0 0 0 0 0 0 0 0 0 0 0 0 0 0 0 0 0 0 0 0 0 0 0 0 0
36 33 28 20 12 5 1 0 0 1 0 0 0 0 0 0 0 0 0 0 0 0 0 0 0 0 0 0 0 0 0 0 0 0 0 0 0 0 0 0 0 0 0
42 38 33 27 18 9 4 1 1 1 0 0 0 0 0 0 0 0 0 0 0 0 0 0 0 0 0 0 0 0 0 0 0 0 0 0 0 0 1 1 1 0 0
44 41 36 31 24 14 8 4 2 1 0 0 0 0 0 0 0 0 0 0 0 0 0 0 0 0 0 0 0 0 0 0 0 0 0 0 0 0 0 0 0 0 0
44 40 35 30 24 18 13 9 6 2 1 1 0 0 0 0 0 0 0 0 0 0 0 0 0 0 0 0 0 0 0 0 0 0 0 0 0 0 0 0 0 0 0
42 37 30 25 22 20 17 13 9 4 2 1 1 0 0 1 0 0 0 0 0 0 0 0 0 0 0 0 0 0 0 0 0 0 0 0 0 0 0 0 0 0 0
39 34 27 23 22 21 18 13 8 4 2 1 1 0 0 0 0 0 0 0 0 0 0 0 0 0 0 0 0 0 0 0 0 0 0 0 0 0 0 0 0 0 0
39 35 28 24 24 22 18 13 8 5 2 1 0 0 0 0 0 0 0 0 0 0 0 0 0 0 0 0 0 0 0 0 0 0 0 0 0 0 0 0 0 0 0
41 37 31 28 28 24 18 14 10 6 3 1 0 0 0 0 0 0 0 0 0 0 0 0 0 0 0 0 0 0 0 0 0 0 0 0 0 0 0 0 0 0 0
42 39 34 31 29 25 18 13 10 6 3 1 1 0 0 0 0 0 0 0 0 0 0 0 0 0 0 0 0 0 0 0 0 0 0 0 0 0 0 0 0 0 0
42 40 36 31 28 24 17 11 8 5 2 2 2 1 0 0 0 0 0 0 0 0 0 0 0 0 0 0 0 0 0 0 0 0 0 0 0 0 0 0 0 0 0
Wind_Speed
9 10 18 18 18 18 18 17 17 17 17 17 17 17 17 17 16 16 16 16 16 15 15 15 14 15 15 15 15 15 15 15 15 16 16 15 15 16 17 17 16 12 17
13 13 19 19 18 18 18 17 17 17 17 17 16 16 16 16 16 16 16 15 15 15 15 14 14 14 14 14 14 14 14 15 15 15 15 13 14 15 16 16 15 11 16
16 13 17 19 19 18 18 17 17 16 16 16 16 16 16 15 15 16 16 15 15 15 14 14 14 14 13 13 13 13 13 13 14 15 13 7 9 14 15 16 16 16 16
16 12 14 20 19 19 18 17 16 16 16 16 16 15 15 15 16 16 15 15 15 14 14 14 14 13 13 12 12 11 11 11 12 13 7 5 7 13 15 15 15 15 15
14 11 15 21 20 19 18 17 17 16 16 16 15 15 15 15 15 15 15 15 14 14 14 13 13 12 12 11 10 9 9 10 12 10 6 5 6 12 14 14 15 15 14
13 11 15 21 20 19 18 17 17 16 16 15 15 15 15 15 15 15 15 15 14 14 13 12 12 11 11 10 8 7 8 10 10 7 6 5 5 11 13 14 14 14 14
14 10 14 20 20 19 18 17 17 16 15 16 15 15 15 15 15 15 14 14 14 13 12 12 11 10 9 9 7 7 8 10 8 7 6 5 6 11 13 13 13 14 13
14 11 12 20 20 19 18 17 16 16 15 15 15 15 15 14 14 14 14 13 13 12 11 11 10 9 8 7 6 7 8 10 10 8 6 5 9 11 12 13 13 13 13
13 11 9 10 14 17 18 17 16 16 15 15 15 15 14 14 14 13 13 12 12 11 10 10 9 8 6 5 6 7 9 12 7 5 7 5 10 12 13 12 12 12 12
11 10 9 8 8 8 10 16 16 16 16 15 15 15 14 14 13 13 11 11 11 10 9 9 8 6 5 4 5 7 9 11 5 5 4 6 12 13 13 12 12 12 12
11 9 9 8 7 7 7 12 13 15 15 14 12 14 11 5 6 7 9 10 10 9 8 7 6 4 3 3 4 7 8 4 5 4 3 9 12 13 12 12 12 12 11
13 10 9 9 8 8 8 7 4 6 6 5 4 6 4 4 3 6 8 10 9 8 7 5 4 2 1 1 3 5 3 5 4 3 4 11 12 13 12 12 11 11 11
14 12 10 10 9 7 5 5 3 3 3 4 5 5 4 3 3 3 2 3 4 4 2 2 1 0 0 0 1 3 4 4 3 3 5 11 11 12 12 12 11 11 10
13 11 10 9 8 7 7 5 4 4 3 4 4 5 4 3 3 3 2 2 2 1 1 1 1 1 1 1 2 4 5 4 3 2 5 11 10 11 12 12 11 11 10
13 12 11 10 9 8 7 5 6 5 4 4 4 5 5 4 4 4 2 2 2 2 2 2 1 1 1 1 3 5 6 6 4 4 3 10 11 11 12 12 11 11 11
13 13 11 11 10 9 6 5 5 5 4 4 4 5 6 5 5 4 3 3 2 2 2 2 2 2 1 1 3 3 5 6 5 5 4 6 11 11 11 12 12 12 11
13 12 11 11 10 9 8 7 5 5 5 4 4 5 5 5 5 5 3 3 2 2 2 2 2 2 1 2 2 3 3 4 5 5 4 3 4 9 11 12 12 11 11
12 11 11 11 10 9 7 6 4 4 5 4 4 4 5 6 6 5 4 3 2 2 2 2 2 2 2 2 1 1 2 2 4 4 3 3 3 3 7 11 11 11 11
12 11 10 9 10 8 7 5 5 5 4 4 4 3 4 5 6 4 3 2 3 2 2 2 2 2 2 2 1 1 1 2 2 3 3 4 4 3 3 6 9 10 10
11 11 10 9 9 8 5 4 4 4 4 4 4 4 5 4 5 4 3 3 3 3 2 2 2 2 2 2 2 2 1 1 1 2 3 3 3 4 3 3 3 5 8
11 11 11 10 9 7 5 5 5 4 4 4 4 5 5 5 5 4 3 3 3 3 3 3 2 2 1 2 3 2 2 2 1 1 1 2 2 2 3 3 2 2 2
13 12 11 11 10 8 6 5 4 4 3 3 3 4 5 5 5 5 5 4 3 3 3 3 3 2 1 1 3 3 2 3 2 1 1 2 2 1 2 3 3 3 2
14 14 13 11 10 9 8 5 4 4 3 2 2 3 3 5 5 5 5 4 4 3 3 3 3 4 2 0 2 4 3 2 1 2 1 0 1 1 1 2 3 3 3
14 13 11 11 10 9 9 8 9 6 5 5 4 3 4 4 5 5 5 5 4 3 3 3 3 3 3 2 0 1 2 4 3 0 2 1 1 2 2 2 3 3 3
13 13 11 11 10 9 9 9 9 6 4 4 4 5 4 3 4 5 5 5 4 3 4 3 3 3 3 3 2 1 1 1 2 3 1 1 1 1 2 2 2 2 3
11 11 11 11 10 10 10 9 9 9 7 7 6 5 4 3 2 4 5 5 4 4 4 4 3 3 2 3 2 2 2 2 2 3 2 1 1 2 1 1 2 2 2
Wind_Direction
149 149 138 131 125 120 116 111 107 105 102 100 100 101 101 104 106 110 112 111 110 110 109 109 108 107 107 108 109 109 110 111 111 111 111 111 110 110 108 107 104 103 105
147 148 139 133 128 124 120 116 112 109 107 106 104 104 104 105 108 112 113 114 113 112 111 110 109 107 107 108 109 111 113 113 112 110 109 108 110 110 108 108 107 110 108
142 143 140 136 131 127 124 120 117 114 112 110 108 106 106 106 109 113 116 116 115 113 113 113 111 110 109 109 109 110 112 113 113 110 106 98 105 110 111 111 110 109 109
140 140 140 138 134 131 128 125 122 118 116 114 112 111 110 109 110 113 114 114 114 113 112 113 114 112 110 109 109 109 111 115 116 112 103 99 107 114 114 112 113 112 111
137 139 144 139 137 134 131 128 126 123 121 119 117 115 114 113 113 114 114 114 114 115 115 116 114 112 110 108 106 108 110 114 116 107 100 95 103 117 116 115 115 116 114
137 140 145 141 139 137 134 132 129 127 126 123 121 120 119 117 116 116 116 115 115 116 118 118 117 114 111 106 101 101 105 113 113 107 105 107 110 120 120 119 119 118 116
138 140 143 141 141 139 137 135 133 131 129 127 125 124 123 121 120 119 118 118 118 119 120 121 120 116 112 106 97 97 104 119 117 114 113 113 119 122 122 121 121 121 119
138 138 142 143 142 141 140 138 136 135 133 131 129 128 127 125 124 124 124 123 123 122 123 124 125 121 116 108 99 96 100 120 123 125 120 122 129 126 125 124 125 124 123
136 136 137 141 143 144 144 141 139 137 136 135 133 132 131 130 129 128 127 128 129 129 129 129 129 125 118 105 96 101 105 121 121 130 133 131 135 133 130 128 129 129 128
136 137 137 134 134 139 143 144 143 142 141 140 139 138 137 135 134 134 132 134 134 134 134 134 132 127 120 103 100 110 112 122 126 123 122 141 141 138 135 134 134 134 134
142 143 142 138 136 137 144 149 146 145 146 144 143 144 137 126 128 135 141 143 142 140 140 140 139 134 116 94 99 110 111 121 127 126 136 146 146 143 141 140 140 139 139
153 155 152 148 148 151 153 140 139 141 142 140 141 139 132 135 145 145 153 152 151 148 147 152 152 139 90 63 86 103 111 128 127 138 150 152 151 148 147 147 146 146 146
158 159 158 156 156 158 141 145 141 136 143 148 152 149 144 141 146 137 142 150 150 153 147 159 157 208 191 141 107 120 133 136 141 151 158 160 157 155 154 154 153 153 152
159 159 158 158 158 155 147 152 151 152 163 163 164 159 147 144 147 149 151 155 157 153 171 169 183 230 234 172 144 135 138 144 147 143 164 165 163 162 162 161 161 161 161
161 161 162 161 160 154 150 158 159 165 172 169 167 164 156 152 157 159 163 170 175 167 169 172 177 172 136 107 128 136 141 147 154 155 162 171 170 170 169 169 170 170 171
163 161 161 160 159 155 155 158 163 168 169 163 164 166 160 159 157 155 160 167 175 179 175 168 161 151 130 98 107 131 140 149 160 163 170 177 179 178 178 178 178 180 180
162 159 158 157 154 156 159 164 162 163 161 158 161 163 157 156 155 151 154 160 172 170 157 134 123 110 110 100 102 121 130 146 162 173 174 171 180 189 188 186 187 187 188
156 158 161 159 156 159 158 156 151 153 152 155 152 151 150 152 151 144 148 158 154 137 135 129 118 106 92 94 99 123 128 144 163 173 176 174 179 192 199 197 193 194 196
158 159 160 153 158 159 154 149 141 138 147 152 146 145 145 145 144 141 145 147 128 117 123 141 119 123 125 121 133 122 123 144 160 166 174 182 187 191 198 208 202 199 202
159 160 158 156 158 153 147 135 127 127 140 145 146 149 143 142 141 137 137 140 127 116 112 110 116 105 127 136 108 78 69 124 149 159 174 175 184 191 192 202 201 209 211
162 161 161 160 162 154 154 154 148 150 150 147 153 150 149 147 142 139 138 134 131 133 143 134 120 104 88 100 81 46 15 23 81 157 164 158 176 181 173 182 178 188 221
170 168 165 167 166 164 164 160 155 145 148 150 150 149 155 152 150 151 145 144 143 133 128 124 120 115 97 114 119 101 41 2 353 31 139 161 173 165 178 188 179 186 187
171 173 173 172 169 167 159 142 131 112 105 116 148 159 165 156 150 146 148 144 145 140 144 143 135 134 140 95 127 139 146 195 299 341 333 153 164 172 195 190 186 186 190
175 173 169 170 170 167 159 158 159 160 163 174 170 164 160 156 151 149 148 144 143 141 145 148 137 135 135 142 122 141 159 155 146 145 333 327 230 196 203 201 190 192 190
172 171 169 168 169 168 166 166 166 164 162 152 151 153 154 151 152 148 146 142 142 141 143 137 131 130 135 146 153 144 108 98 119 137 188 287 313 274 227 213 196 192 194
167 167 166 168 171 171 169 167 168 165 159 156 161 163 161 152 151 154 146 144 145 144 145 144 141 141 143 142 145 140 145 148 164 150 162 202 237 272 258 236 214 202 197